Helicity
144 106 87 78 68 66 62 56 48 48 47 41 35 35 31 31 24 11 -17 -17 -9 22 17 -1 22 43 63 64 35 36 14 -2 2 21 57 66 36 40 19 -2 -8 -11 -11
189 131 111 88 83 73 69 68 61 69 48 27 25 25 24 32 32 46 30 43 64 60 18 -8 21 35 54 49 12 6 -2 -9 -23 -11 54 85 73 37 16 21 4 -4 -7
171 153 123 99 86 86 83 78 87 72 31 22 25 22 18 22 42 66 48 52 58 35 8 3 18 43 50 45 29 42 42 5 -31 -9 8 6 12 22 28 5 -5 0 10
165 159 137 108 97 91 90 87 72 47 24 27 25 33 23 22 47 74 77 72 49 22 15 16 32 29 31 35 26 38 62 95 23 36 36 30 15 35 13 5 1 0 1
143 150 156 121 108 104 96 82 67 39 25 41 33 50 57 41 50 73 81 72 53 39 35 31 33 35 30 18 26 29 23 58 66 73 98 15 11 29 31 -14 1 6 2
120 153 162 130 110 113 94 81 62 35 41 57 54 47 64 59 56 63 55 63 62 66 39 40 52 50 31 34 47 45 23 73 119 101 141 58 19 55 61 60 30 27 13
148 163 164 141 114 116 104 81 69 51 50 57 90 96 89 61 57 58 52 49 71 73 46 45 46 36 36 42 77 103 62 84 81 118 156 114 57 73 67 61 43 36 8
254 173 155 152 136 113 102 93 74 57 55 58 81 84 74 51 39 61 51 55 71 68 70 76 51 26 34 50 79 78 16 46 104 105 105 69 59 56 62 59 51 51 48
205 187 147 132 112 100 99 92 76 62 51 66 74 78 70 60 59 62 65 59 83 93 99 86 55 24 29 58 70 79 59 64 97 98 81 58 44 40 68 51 71 68 56
197 177 159 147 132 114 99 101 91 72 69 72 68 83 96 97 76 71 60 65 90 110 94 76 55 37 50 48 58 6 21 16 44 53 46 22 28 49 79 80 73 79 65
184 167 158 150 149 141 139 121 119 95 91 74 55 61 109 99 69 83 81 73 65 72 48 37 33 31 33 47 47 48 -11 -11 34 43 24 42 33 70 87 90 82 78 97
192 160 156 151 147 158 152 138 113 106 94 60 28 59 88 104 113 98 86 81 72 41 -2 1 -14 -22 8 27 38 45 -19 -2 -7 20 27 42 42 72 84 97 85 96 120
193 202 149 152 142 153 155 146 122 115 94 38 -24 37 146 142 143 129 103 91 47 18 27 37 30 39 42 56 72 67 45 17 35 41 25 30 42 54 50 61 76 81 113
194 190 154 142 145 141 150 122 107 91 72 32 -11 105 119 117 115 89 75 49 31 22 41 47 50 64 60 36 38 66 34 14 21 28 42 65 46 41 38 42 52 73 91
220 207 169 155 160 143 140 118 91 76 78 36 82 149 131 102 92 47 25 4 29 32 35 60 70 85 94 114 101 88 7 32 29 22 33 54 38 40 47 38 37 39 59
227 200 182 174 171 152 133 111 105 115 84 71 120 114 71 54 50 40 8 68 58 58 70 62 65 66 80 94 58 69 15 0 17 4 19 22 48 43 46 37 35 34 34
212 201 195 197 193 155 141 130 142 123 137 127 142 109 72 98 88 101 93 92 58 52 39 53 48 62 55 66 56 55 39 27 11 9 -12 -4 27 50 39 17 42 46 43
225 221 202 210 209 178 160 166 168 162 148 135 126 120 95 110 101 92 78 81 62 66 90 76 71 78 60 52 62 66 31 14 12 0 -2 -3 -2 6 21 38 48 37 29
227 230 250 240 237 221 194 194 201 175 175 142 134 110 115 118 111 113 99 104 107 116 96 70 74 60 47 43 40 30 16 0 -6 7 11 10 12 7 -3 18 31 32 30
230 239 316 284 286 281 249 242 186 157 155 148 140 121 139 123 113 107 101 106 119 103 76 68 69 49 33 30 40 56 40 11 2 -2 5 3 -7 -3 17 24 20 22 37
160 229 301 294 321 376 334 260 188 172 171 157 145 137 156 116 102 104 110 93 95 77 56 51 57 56 57 55 62 62 57 34 29 14 -3 11 4 10 -2 7 30 31 16
160 215 251 322 358 323 342 235 204 200 209 179 171 140 131 127 118 113 114 89 71 63 59 53 62 87 83 60 70 81 96 56 35 10 -3 3 12 22 17 15 17 36 37
373 221 301 329 315 307 293 283 297 263 278 266 189 156 143 140 133 128 120 107 70 53 52 73 69 93 83 40 95 84 90 75 36 26 10 -6 10 12 4 15 17 19 20
608 546 235 304 315 287 316 305 293 276 280 226 212 231 184 141 140 131 133 102 90 81 75 87 69 80 85 45 54 77 90 77 40 30 20 -3 23 37 21 3 14 26 30
562 705 627 347 309 344 344 279 292 271 244 225 222 221 194 183 176 168 152 145 113 130 109 115 115 83 62 82 72 70 72 70 56 35 16 10 13 19 39 45 35 26 36
682 749 690 589 538 299 304 247 271 292 248 238 215 234 224 223 215 177 159 126 116 108 111 96 85 41 53 87 63 61 48 46 34 34 31 27 29 20 35 40 54 54 48
Wind_Speed
18 19 19 21 21 23 22 20 20 13 15 10 10 10 11 13 13 18 22 31 32 35 29 25 23 26 28 26 29 30 30 33 36 34 33 36 50 56 64 68 71 72 74
20 20 24 23 22 22 21 18 17 9 10 6 6 4 4 9 14 24 32 36 33 30 29 30 25 23 24 24 25 25 26 32 43 44 35 38 43 53 61 63 70 73 73
22 23 24 25 24 22 19 15 10 9 6 2 3 3 3 6 14 20 25 29 28 27 25 23 23 24 22 22 18 19 21 23 38 48 48 46 47 49 54 62 67 70 74
26 24 24 27 25 23 18 12 7 5 2 3 6 5 5 12 15 19 22 26 27 23 20 21 23 24 23 23 23 24 28 34 47 46 43 44 58 54 57 64 66 68 70
26 22 25 28 25 23 18 11 7 5 7 6 11 9 10 11 13 14 15 18 19 20 19 23 23 20 18 18 12 9 28 30 36 34 26 42 43 52 56 64 66 66 68
25 25 28 27 26 22 17 11 8 11 9 10 14 12 10 10 10 14 14 13 12 11 15 23 21 19 15 13 9 7 16 31 30 31 29 38 49 49 51 56 61 64 66
22 23 27 27 27 20 17 11 9 11 10 11 13 12 10 8 8 11 12 13 11 10 19 27 26 23 17 17 13 16 36 31 19 16 16 25 41 44 45 48 53 55 62
18 20 25 25 23 19 17 14 12 11 10 13 14 13 11 8 6 6 11 13 12 14 22 25 23 21 13 12 12 21 38 31 18 14 18 28 43 45 47 49 50 55 61
16 18 20 23 19 19 21 19 14 12 12 13 14 13 12 9 7 8 14 15 16 20 25 23 22 21 21 18 16 26 40 37 25 22 24 29 43 47 50 52 51 53 56
19 19 17 19 20 20 20 21 14 13 13 12 12 11 11 12 11 11 15 19 22 25 25 21 19 20 20 10 5 26 33 40 35 36 39 44 45 48 47 49 51 52 53
20 21 20 20 21 20 19 19 16 15 15 15 13 15 13 11 12 9 14 19 21 20 20 20 18 18 17 12 9 14 37 39 38 40 41 43 45 44 46 48 50 52 52
28 25 23 22 20 22 18 17 14 15 17 15 13 14 13 11 10 12 14 14 14 15 16 17 22 22 17 15 16 20 35 38 39 40 40 42 43 41 44 44 48 49 51
32 28 26 23 23 20 21 17 15 16 17 16 15 14 12 11 11 9 6 5 8 9 7 9 11 14 17 18 21 29 31 35 36 38 39 40 45 42 42 45 47 47 48
37 32 30 26 24 22 21 18 18 19 17 19 21 14 14 13 13 10 7 3 1 3 7 9 13 15 18 21 23 28 31 33 33 34 34 40 42 45 44 41 44 47 46
40 35 34 31 28 25 24 22 19 20 19 20 23 13 13 13 14 11 7 5 3 1 7 9 13 17 19 21 23 29 31 32 32 32 36 38 40 41 45 46 44 44 45
41 39 36 34 31 31 27 25 23 19 20 21 16 12 12 15 13 13 9 7 2 4 5 8 12 16 18 20 24 24 28 31 32 33 33 36 39 41 43 42 45 44 43
45 42 38 37 34 34 34 28 25 23 20 21 18 13 15 13 15 12 11 5 4 1 3 7 11 16 18 20 22 22 26 28 29 31 33 35 36 39 41 41 43 45 46
47 47 41 39 39 37 35 31 28 25 22 20 20 17 16 14 11 13 13 9 5 3 2 5 8 13 16 18 19 21 24 26 26 29 31 32 34 37 39 39 41 43 43
50 50 46 42 43 39 37 31 28 25 26 23 19 20 17 15 14 9 11 11 6 3 1 3 7 10 12 15 18 23 25 25 26 28 31 32 32 34 37 38 39 41 43
55 52 49 45 44 41 39 34 30 27 26 25 23 20 17 15 16 11 11 11 7 5 2 1 5 7 10 13 14 18 21 22 25 28 29 32 33 34 35 36 37 39 41
60 55 55 51 49 47 46 42 35 31 27 25 24 23 19 17 17 14 12 12 11 8 7 3 1 4 5 9 13 16 21 23 24 25 26 29 32 34 35 37 35 36 38
63 57 57 54 52 51 47 46 38 32 28 25 23 23 23 21 20 18 13 14 13 11 8 6 5 4 3 6 11 16 19 23 23 23 25 27 29 31 33 34 35 34 32
58 64 60 58 57 53 50 46 41 35 31 30 26 24 24 24 23 22 19 17 15 14 11 7 6 8 2 5 18 22 22 25 18 23 24 25 26 29 29 28 29 30 30
59 58 60 60 59 56 52 51 50 44 37 32 30 26 24 24 23 23 22 21 21 22 17 13 6 7 6 11 20 22 24 22 26 26 27 25 24 25 26 26 26 25 26
55 58 57 59 59 59 58 54 51 47 42 36 34 30 28 27 27 26 26 25 24 23 22 18 15 13 16 17 20 23 27 28 28 27 28 27 27 25 24 24 24 25 22
52 50 54 55 60 61 61 59 56 51 46 42 37 34 31 30 28 30 28 27 26 26 25 23 21 21 22 20 23 24 28 29 30 29 30 27 30 26 27 24 25 23 25
Wind_Direction
92 113 119 121 120 118 115 108 97 91 72 60 54 53 51 48 47 47 63 68 68 67 60 59 62 64 63 63 58 52 47 45 41 36 32 30 40 40 46 54 61 67 63
103 118 120 122 124 123 120 112 101 93 68 63 64 74 70 59 61 58 65 73 71 63 58 58 60 64 60 58 52 46 41 40 46 41 34 31 32 37 45 44 56 59 60
107 118 121 123 125 124 124 121 114 88 68 91 108 128 132 89 73 68 68 68 64 60 57 58 61 62 58 52 46 38 29 29 41 46 47 40 38 36 37 48 55 54 61
111 120 123 124 125 125 125 133 136 114 127 156 177 160 145 94 86 75 70 67 62 60 58 61 63 60 55 48 41 35 35 39 50 46 38 39 56 45 45 51 57 60 58
114 120 124 123 126 125 124 132 168 184 200 189 189 160 114 108 92 83 72 66 63 63 63 64 64 60 54 50 43 38 39 39 39 31 18 38 35 41 43 65 59 59 62
120 117 125 126 125 128 127 137 164 201 200 196 196 180 135 113 100 82 72 69 70 69 66 65 64 60 55 48 40 29 34 39 32 29 23 35 42 41 38 41 51 56 62
123 121 125 127 125 128 125 142 156 195 196 186 175 165 148 143 120 87 73 68 75 77 68 69 67 58 50 40 33 33 45 36 24 25 25 25 33 33 34 32 37 42 57
130 130 127 128 129 128 126 131 152 179 172 181 182 182 180 170 137 114 75 71 74 72 71 72 68 60 49 41 37 37 46 38 24 17 15 20 31 32 32 34 36 40 54
150 146 131 130 134 129 125 128 144 167 168 179 189 194 193 190 159 127 87 78 74 74 75 71 66 56 46 38 31 36 48 39 23 15 9 13 31 35 34 41 38 39 46
153 158 152 137 133 133 129 127 143 162 162 169 165 169 171 162 154 123 96 82 77 78 71 68 64 52 43 20 345 39 38 41 32 30 31 37 40 43 33 36 36 35 38
174 163 157 148 135 140 135 133 137 148 157 153 142 145 160 165 137 132 101 88 77 74 68 65 60 46 37 354 306 346 45 43 37 35 36 34 45 44 34 35 35 34 33
182 174 164 166 152 143 151 146 154 154 160 174 167 174 187 180 161 130 108 87 70 67 63 64 64 53 20 343 328 1 50 44 39 36 38 36 36 48 33 30 32 33 32
188 188 178 170 175 164 158 170 170 184 177 188 183 194 186 163 158 153 143 99 64 51 43 36 22 308 8 355 10 40 41 38 40 35 36 36 44 44 40 36 33 35 33
194 189 185 183 177 188 176 177 180 181 185 198 211 194 174 190 184 201 207 182 45 40 14 345 18 14 15 28 29 35 42 42 40 30 25 35 39 41 40 42 33 35 33
198 190 189 188 191 184 187 190 183 195 187 195 226 187 189 193 190 201 201 227 261 55 326 28 27 22 18 13 30 40 43 42 42 41 37 33 33 32 35 40 39 37 36
199 191 188 189 196 194 196 191 202 190 195 192 215 190 194 209 196 216 204 238 170 307 15 32 35 28 22 16 35 28 42 47 49 47 36 32 32 33 30 29 35 34 33
199 191 191 190 193 196 204 202 206 207 195 211 208 197 204 213 213 216 225 203 221 88 54 44 39 41 32 26 31 26 40 33 54 47 44 41 34 29 25 34 34 30 29
201 196 195 197 195 199 202 207 209 205 205 208 214 211 220 219 206 224 219 237 179 217 83 48 30 42 35 30 28 25 32 36 30 48 40 41 38 34 28 32 28 26 25
203 200 200 199 195 197 199 205 208 208 214 216 213 214 216 212 220 218 208 237 189 155 126 35 39 43 39 36 38 44 42 43 36 35 38 27 33 39 35 37 32 28 26
213 205 205 204 198 199 200 208 209 214 218 222 220 219 212 210 214 211 216 222 212 185 203 3 57 47 45 35 22 15 18 19 28 31 35 36 35 36 46 47 47 42 37
215 211 211 207 202 203 203 207 207 211 214 220 223 219 217 210 212 214 204 215 226 211 226 165 65 69 26 17 10 360 2 354 359 5 18 33 35 39 41 45 58 53 49
220 211 208 209 207 209 208 212 213 214 219 220 221 217 221 215 220 218 207 208 217 220 208 225 248 295 356 8 348 353 344 336 343 351 347 2 35 37 46 49 52 55 58
224 220 213 212 211 214 212 213 217 220 224 226 218 219 222 221 224 225 221 219 221 229 210 222 229 273 258 323 324 316 315 311 344 334 346 10 22 33 48 59 59 54 49
231 234 225 217 216 215 214 216 214 216 215 221 224 224 217 220 223 225 225 224 235 240 232 242 212 264 274 289 302 313 310 314 307 317 325 355 19 38 47 51 50 55 53
237 236 232 223 219 219 214 218 216 218 222 226 228 222 221 226 225 228 229 231 234 239 238 241 238 255 278 283 291 289 291 294 303 315 329 347 1 24 40 47 48 46 51
240 237 234 229 230 226 219 220 217 218 221 222 223 224 223 225 228 230 232 233 235 239 239 240 252 258 272 281 279 284 284 288 295 310 320 343 355 13 25 36 32 39 39